Simcha — PE7688 — position and weather

sailwx.info

Track history (hours):
 
Tides and Currents Weather Stations Pressure Air Temp Water Temp Dewpoint Dewpoint Depression Visibility Wind Speed Wind Dir Waves Ship Positions

Simcha

Last reported at 2014-Jul-21 09:33 UTC. Time now 2014-Jul-22 18:58 UTC.
Position N 51°11' E 006°44'.

Length 10 m.

Type: Ship. MMSI: 244780014.

Date/timePositionNaut miles runAvg speedWind from/ knotsBaromVisibWave heightAir tempDewpointWater temp
2014-Jul-21 09:33N 51°11' E 006°44'62 1.5
2014-Jul-19 17:32N 51°53' E 005°31'5 4.9
2014-Jul-19 16:33N 51°51' E 005°25'4 3.9
2014-Jul-19 15:33N 51°49' E 005°19'5 4.9
2014-Jul-19 14:33N 51°49' E 005°11'5 4.8
2014-Jul-19 13:30N 51°49' E 005°03'6 5.5
2014-Jul-19 12:27N 51°49' E 004°54'5 5.7
2014-Jul-19 11:33N 51°47' E 004°46'6 5.6
2014-Jul-19 10:33N 51°43' E 004°40'27 1.0
2014-Jul-18 08:03N 51°36' E 003°58'3 6.7
2014-Jul-18 07:33N 51°33' E 003°59'6 5.6
2014-Jul-18 06:33N 51°27' E 004°01'4 3.5
2014-Jul-18 05:33N 51°26' E 003°56'9 7.1
2014-Jul-18 04:18N 51°26' E 003°41'1 0.1
2014-Jul-17 21:21N 51°27' E 003°42'1 0.4
2014-Jul-17 19:33N 51°26' E 003°41'9 7.1
2014-Jul-17 18:19N 51°26' E 003°56'4 3.8
2014-Jul-17 17:22N 51°27' E 004°01'5 6.0
2014-Jul-17 16:34N 51°32' E 003°60'27 5.4
2014-Jul-17 11:33N 51°45' E 004°38'7 6.9
2014-Jul-17 10:33N 51°52' E 004°38'7 7.2
2014-Jul-17 09:33N 51°55' E 004°49'7 7.5
2014-Jul-17 08:33N 51°59' E 004°59'5 5.2
2014-Jul-17 07:33N 52°01' E 005°07'14 7.0
2014-Jul-17 05:31N 52°15' E 005°01'7 6.9
2014-Jul-17 04:34N 52°21' E 004°58'1 1.5
2014-Jul-17 03:33N 52°23' E 004°57'0 0.0
2014-Jul-17 02:33N 52°23' E 004°57'0 0.0
2014-Jul-17 01:33N 52°23' E 004°57'0 0.0
2014-Jul-17 00:33N 52°23' E 004°57'0 0.0
2014-Jul-16 23:33N 52°23' E 004°57'0 0.0
2014-Jul-16 22:33N 52°23' E 004°57'1 0.7
2014-Jul-16 21:33N 52°23' E 004°58'2 2.5
2014-Jul-16 20:33N 52°23' E 005°02'8 7.6
2014-Jul-16 19:33N 52°26' E 005°13'14 5.8
2014-Jul-16 17:13N 52°35' E 005°30'5 8.1
2014-Jul-16 16:33N 52°40' E 005°33'50 2.3
2014-Jul-15 18:32N 53°13' E 006°36'7 6.7
2014-Jul-15 17:33N 53°17' E 006°45'7 6.7
2014-Jul-15 16:33N 53°19' E 006°56'0 0.0
2014-Jul-15 15:33N 53°19' E 006°56'2 1.8
2014-Jul-15 14:33N 53°19' E 006°59'  
2014-Jul-13 10:07N 53°20' E 007°08'4 7.2
2014-Jul-13 09:34N 53°19' E 007°02'3 3.3
2014-Jul-13 08:33N 53°19' E 006°56'2 2.5
2014-Jul-13 07:33N 53°18' E 006°52'4 3.4
2014-Jul-13 06:25N 53°17' E 006°46'0 0.0
2014-Jul-13 05:33N 53°17' E 006°46'0 0.0
2014-Jul-13 04:33N 53°17' E 006°46'0 0.0
2014-Jul-13 03:33N 53°17' E 006°46'0 0.0
2014-Jul-13 02:33N 53°17' E 006°46'0 0.0
2014-Jul-13 01:33N 53°17' E 006°46'0 0.0
2014-Jul-13 00:33N 53°17' E 006°46'0 0.0
2014-Jul-12 23:30N 53°17' E 006°46'0 0.0
2014-Jul-12 22:33N 53°17' E 006°46'0 0.0
2014-Jul-12 21:33N 53°17' E 006°46'1 0.4
2014-Jul-12 17:33N 53°16' E 006°44'5 4.8
2014-Jul-12 16:33N 53°14' E 006°37'48 1.6
2014-Jul-11 11:22N 52°44' E 005°35'5 6.5
2014-Jul-11 10:32N 52°39' E 005°35'  
Track history (hours):
 
Tides and Currents Weather Stations Pressure Air Temp Water Temp Dewpoint Dewpoint Depression Visibility Wind Speed Wind Dir Waves Ship Positions

Simcha

Last reported at 2014-Jul-21 09:33 UTC. Time now 2014-Jul-22 18:58 UTC.
Position N 51°11' E 006°44'.

Length 10 m.

Type: Ship. MMSI: 244780014.

Date/timePositionNaut miles runAvg speedWind from/ knotsBaromVisibWave heightAir tempDewpointWater temp
2014-Jul-21 09:33N 51°11' E 006°44'62 1.5
2014-Jul-19 17:32N 51°53' E 005°31'5 4.9
2014-Jul-19 16:33N 51°51' E 005°25'4 3.9
2014-Jul-19 15:33N 51°49' E 005°19'5 4.9
2014-Jul-19 14:33N 51°49' E 005°11'5 4.8
2014-Jul-19 13:30N 51°49' E 005°03'6 5.5
2014-Jul-19 12:27N 51°49' E 004°54'5 5.7
2014-Jul-19 11:33N 51°47' E 004°46'6 5.6
2014-Jul-19 10:33N 51°43' E 004°40'27 1.0
2014-Jul-18 08:03N 51°36' E 003°58'3 6.7
2014-Jul-18 07:33N 51°33' E 003°59'6 5.6
2014-Jul-18 06:33N 51°27' E 004°01'4 3.5
2014-Jul-18 05:33N 51°26' E 003°56'9 7.1
2014-Jul-18 04:18N 51°26' E 003°41'1 0.1
2014-Jul-17 21:21N 51°27' E 003°42'1 0.4
2014-Jul-17 19:33N 51°26' E 003°41'9 7.1
2014-Jul-17 18:19N 51°26' E 003°56'4 3.8
2014-Jul-17 17:22N 51°27' E 004°01'5 6.0
2014-Jul-17 16:34N 51°32' E 003°60'27 5.4
2014-Jul-17 11:33N 51°45' E 004°38'7 6.9
2014-Jul-17 10:33N 51°52' E 004°38'7 7.2
2014-Jul-17 09:33N 51°55' E 004°49'7 7.5
2014-Jul-17 08:33N 51°59' E 004°59'5 5.2
2014-Jul-17 07:33N 52°01' E 005°07'14 7.0
2014-Jul-17 05:31N 52°15' E 005°01'7 6.9
2014-Jul-17 04:34N 52°21' E 004°58'1 1.5
2014-Jul-17 03:33N 52°23' E 004°57'0 0.0
2014-Jul-17 02:33N 52°23' E 004°57'0 0.0
2014-Jul-17 01:33N 52°23' E 004°57'0 0.0
2014-Jul-17 00:33N 52°23' E 004°57'0 0.0
2014-Jul-16 23:33N 52°23' E 004°57'0 0.0
2014-Jul-16 22:33N 52°23' E 004°57'1 0.7
2014-Jul-16 21:33N 52°23' E 004°58'2 2.5
2014-Jul-16 20:33N 52°23' E 005°02'8 7.6
2014-Jul-16 19:33N 52°26' E 005°13'14 5.8
2014-Jul-16 17:13N 52°35' E 005°30'5 8.1
2014-Jul-16 16:33N 52°40' E 005°33'50 2.3
2014-Jul-15 18:32N 53°13' E 006°36'7 6.7
2014-Jul-15 17:33N 53°17' E 006°45'7 6.7
2014-Jul-15 16:33N 53°19' E 006°56'0 0.0
2014-Jul-15 15:33N 53°19' E 006°56'2 1.8
2014-Jul-15 14:33N 53°19' E 006°59'  
2014-Jul-13 10:07N 53°20' E 007°08'4 7.2
2014-Jul-13 09:34N 53°19' E 007°02'3 3.3
2014-Jul-13 08:33N 53°19' E 006°56'2 2.5
2014-Jul-13 07:33N 53°18' E 006°52'4 3.4
2014-Jul-13 06:25N 53°17' E 006°46'0 0.0
2014-Jul-13 05:33N 53°17' E 006°46'0 0.0
2014-Jul-13 04:33N 53°17' E 006°46'0 0.0
2014-Jul-13 03:33N 53°17' E 006°46'0 0.0
2014-Jul-13 02:33N 53°17' E 006°46'0 0.0
2014-Jul-13 01:33N 53°17' E 006°46'0 0.0
2014-Jul-13 00:33N 53°17' E 006°46'0 0.0
2014-Jul-12 23:30N 53°17' E 006°46'0 0.0
2014-Jul-12 22:33N 53°17' E 006°46'0 0.0
2014-Jul-12 21:33N 53°17' E 006°46'1 0.4
2014-Jul-12 17:33N 53°16' E 006°44'5 4.8
2014-Jul-12 16:33N 53°14' E 006°37'48 1.6
2014-Jul-11 11:22N 52°44' E 005°35'5 6.5
2014-Jul-11 10:32N 52°39' E 005°35'  

Dump ship's entire track history